Weather History for Portage Glacier, AK

Change the Weather History Date:

Saturday, August 3, 2013

  Actual Average Record
Temperature  
Mean Temperature 55 °F -  
Max Temperature 57 °F - - ()
Min Temperature 52 °F - - ()
Degree Days  
Heating Degree Days 10    
Growing Degree Days 5 (Base 50)    
Moisture  
Dew Point 52 °F    
Average Humidity 87    
Maximum Humidity 97    
Minimum Humidity 81    
Precipitation  
Precipitation 2.13 in - - ()
Sea Level Pressure  
Sea Level Pressure 29.91 in    
Wind  
Wind Speed 18 mph (ESE)    
Max Wind Speed 28 mph    
Max Gust Speed 52 mph    
Visibility 3 miles    
Events Rain    
T = Trace of Precipitation, MM = Missing Value Source: NWS Daily Summary

Daily Weather History Graph

Daily Weather History Graph

Search for Another Location

Airport:

Trip Planner

Search our weather history database for the weather conditions in past years. The results will help you decide how hot, cold, wet, or windy it might be!

Date:

Astronomy

Aug. 03, 2013 Rise Set
Actual Time 5:36 AM AKDT 10:24 PM AKDT
Civil Twilight 4:35 AM AKDT 11:25 PM AKDT
Nautical Twilight 2:33 AM AKDT 1:44 AM AKDT
Astronomical Twilight Sun does not rise Sun does not rise
Moon 2:42 AM AKDT (8/3) 8:20 PM AKDT (8/3)
Length of Visible Light 18h 50m
Length of Day
16h 47m
Waning Crescent, 9% of the Moon is Illuminated
Aug 3
Waning Crescent
Aug 6
New
Aug 14
First Quarter
Aug 20
Full
Aug 28
Last Quarter

Hourly Weather History & Observations

Time (AKDT) Temp. Dew Point Humidity Pressure Visibility Wind Dir Wind Speed Gust Speed Precip Events Conditions
12:09 AM 55.9 °F 52.0 °F 87% 29.90 in 2.5 mi East 18.4 mph 41.4 mph 0.05 in Rain Rain
12:18 AM 57.0 °F 52.0 °F 83% 29.89 in 2.5 mi East 21.9 mph 32.2 mph 0.08 in Rain Rain
12:25 AM 57.0 °F 52.0 °F 83% 29.90 in 4.0 mi East 16.1 mph 32.2 mph 0.09 in Rain Rain
12:53 AM 57.0 °F 52.0 °F 83% 29.90 in 4.0 mi ESE 12.7 mph 39.1 mph 0.18 in Rain Rain
1:53 AM 55.9 °F 52.0 °F 87% 29.90 in 4.0 mi East 17.3 mph 36.8 mph 0.17 in Rain Rain
2:53 AM 55.9 °F 51.1 °F 84% 29.89 in 5.0 mi East 25.3 mph 44.9 mph 0.10 in Rain Rain
3:08 AM 55.9 °F 51.1 °F 84% 29.89 in 4.0 mi ESE 27.6 mph 43.7 mph 0.02 in Rain Rain
3:53 AM 55.0 °F 51.1 °F 86% 29.88 in 3.0 mi ESE 26.5 mph 40.3 mph 0.10 in Rain Rain
4:06 AM 54.0 °F 51.1 °F 90% 29.88 in 2.5 mi ESE 18.4 mph 44.9 mph 0.04 in Rain Rain
4:18 AM 54.0 °F 51.1 °F 90% 29.89 in 3.0 mi East 16.1 mph 44.9 mph 0.06 in Rain Rain
4:50 AM 53.6 °F 50.0 °F 88% 29.86 in 2.5 mi East 21.9 mph 51.8 mph 0.13 in Rain Rain
4:53 AM 55.0 °F 50.0 °F 83% 29.86 in 2.5 mi East 19.6 mph 47.2 mph 0.14 in Rain Rain
5:01 AM 54.0 °F 50.0 °F 86% 29.85 in 3.0 mi ESE 23.0 mph 42.6 mph 0.02 in Rain Rain
5:30 AM 54.0 °F 50.0 °F 86% 29.86 in 2.5 mi ESE 19.6 mph 33.4 mph 0.06 in Rain Light Rain
5:53 AM 55.0 °F 51.1 °F 86% 29.86 in 2.0 mi ESE 15.0 mph 35.7 mph 0.10 in Rain Rain
6:53 AM 54.0 °F 51.1 °F 90% 29.86 in 1.2 mi ESE 19.6 mph 38.0 mph 0.14 in Rain Rain
7:53 AM 55.0 °F 51.1 °F 86% 29.87 in 1.2 mi ESE 23.0 mph 38.0 mph 0.16 in Rain Rain
8:53 AM 55.0 °F 51.1 °F 86% 29.88 in 1.5 mi ESE 25.3 mph 40.3 mph 0.21 in Rain Rain
9:53 AM 55.9 °F 51.1 °F 84% 29.88 in 1.2 mi ESE 15.0 mph 44.9 mph 0.24 in Rain Heavy Rain
10:53 AM 55.0 °F 51.1 °F 86% 29.86 in 1.5 mi SSE 25.3 mph 43.7 mph 0.20 in Rain Rain
11:09 AM 55.9 °F 51.1 °F 84% 29.89 in 2.0 mi ESE 18.4 mph 35.7 mph 0.03 in Rain Light Rain
11:23 AM 55.0 °F 51.1 °F 86% 29.89 in 1.2 mi North - - 0.06 in Rain Rain
11:43 AM 55.9 °F 51.1 °F 84% 29.90 in 1.5 mi East 19.6 mph 42.6 mph 0.12 in Rain Rain
11:53 AM 55.9 °F 51.1 °F 84% 29.91 in 1.8 mi East 15.0 mph 42.6 mph 0.14 in Rain Rain
12:07 PM 55.9 °F 51.1 °F 84% 29.90 in 1.8 mi ESE 18.4 mph 39.1 mph 0.02 in Rain Rain
12:16 PM 55.9 °F 51.1 °F 84% 29.90 in 1.8 mi ESE 20.7 mph 38.0 mph 0.04 in Rain Light Rain
12:28 PM 55.9 °F 51.1 °F 84% 29.91 in 2.0 mi ESE 15.0 mph 38.0 mph 0.05 in Rain Light Rain
12:49 PM 55.4 °F 51.8 °F 88% 29.91 in 3.0 mi ESE 23.0 mph 35.7 mph 0.06 in Rain Light Rain
12:53 PM 57.0 °F 51.1 °F 81% 29.91 in 4.0 mi ESE 23.0 mph 39.1 mph 0.06 in Rain Light Rain
1:24 PM 55.9 °F 52.0 °F 87% 29.92 in 2.5 mi ESE 16.1 mph 31.1 mph 0.01 in Rain Light Rain
1:34 PM 55.9 °F 52.0 °F 87% 29.92 in 2.5 mi ESE 10.4 mph 20.7 mph 0.02 in Rain Light Rain
1:53 PM 55.9 °F 52.0 °F 87% 29.93 in 2.5 mi East 16.1 mph 27.6 mph 0.03 in Rain Light Rain
2:17 PM 55.9 °F 52.0 °F 87% 29.93 in 4.0 mi ESE 13.8 mph 27.6 mph 0.00 in Rain Light Rain
2:36 PM 55.9 °F 52.0 °F 87% 29.94 in 2.5 mi ESE 16.1 mph 29.9 mph 0.01 in Rain Light Rain
2:53 PM 55.9 °F 52.0 °F 87% 29.94 in 2.0 mi ESE 15.0 mph 25.3 mph 0.02 in Rain Light Rain
3:02 PM 55.9 °F 52.0 °F 87% 29.94 in 1.8 mi ESE 17.3 mph 29.9 mph 0.01 in Rain Light Rain
3:28 PM 57.0 °F 52.0 °F 83% 29.94 in 2.0 mi ESE 16.1 mph 34.5 mph 0.05 in Rain Light Rain
3:45 PM 55.9 °F 52.0 °F 87% 29.94 in 1.8 mi ESE 16.1 mph 34.5 mph 0.07 in Rain Light Rain
3:53 PM 57.0 °F 52.0 °F 83% 29.94 in 3.0 mi East 17.3 mph 34.5 mph 0.07 in Rain Light Rain
4:05 PM 55.9 °F 52.0 °F 87% 29.94 in 4.0 mi ESE 16.1 mph 25.3 mph 0.00 in Rain Light Rain
4:47 PM 55.4 °F 51.8 °F 88% 29.94 in 2.5 mi ESE 17.3 mph 26.5 mph 0.02 in Rain Light Rain
4:53 PM 55.9 °F 52.0 °F 87% 29.94 in 2.5 mi East 18.4 mph 31.1 mph 0.02 in Rain Light Rain
5:00 PM 55.9 °F 52.0 °F 87% 29.93 in 2.5 mi ESE 16.1 mph 32.2 mph 0.00 in Rain Light Rain
5:38 PM 55.9 °F 52.0 °F 87% 29.94 in 4.0 mi ESE 13.8 mph 28.8 mph 0.01 in Rain Light Rain
5:53 PM 55.9 °F 52.0 °F 87% 29.94 in 5.0 mi ESE 15.0 mph 35.7 mph 0.01 in Rain Light Rain
6:53 PM 55.9 °F 52.0 °F 87% 29.94 in 4.0 mi East 15.0 mph 25.3 mph 0.01 in Rain Light Rain
7:53 PM 55.9 °F 52.0 °F 87% 29.95 in 4.0 mi Variable 6.9 mph 21.9 mph 0.01 in Rain Light Rain
8:53 PM 55.0 °F 53.1 °F 93% 29.96 in 5.0 mi SE 6.9 mph - 0.01 in Rain Light Rain
9:53 PM 54.0 °F 53.1 °F 97% 29.98 in 6.0 mi SSE 9.2 mph 17.3 mph 0.00 in   Overcast
10:01 PM 54.0 °F 53.1 °F 97% 29.97 in 5.0 mi SE 8.1 mph - 0.00 in Rain Light Rain
10:53 PM 53.1 °F 52.0 °F 96% 29.99 in 10.0 mi East 9.2 mph - 0.01 in   Overcast
11:53 PM 52.0 °F 51.1 °F 97% 29.99 in 10.0 mi East 8.1 mph - 0.00 in   Overcast